CORIOLIS

Last updated on Sun Jun 21 2026 00:03:39 GMT+0000 (Coordinated Universal Time)

1 27640U 03001A 26171.43857340 .00000069 00000+0 53062-4 0 9998 2 27640 98.7125 178.2738 0013553 199.0083 161.0590 14.19945602214680
UTC large
Height (km)
Speed (km/s)
/
Latitude / Longitude
Inclination (degrees)
Orbital Period (minutes)
Azimuth
Elevation
Range (km)
Doppler Factor

Next 0 passes for location: London (51.5072 / 0.1276)

No passes found over London.
CORIOLIS